Kingsville NAS, TX

10:30 PM CDT on May 26, 2017 (GMT -0500)
Kingsville Naval Air Station

Weather History for KNQI - March, 2013

Change the Weather History Date:

Tuesday, March 26, 2013

  Actual Average Record
Temperature  
Mean Temperature 58 °F -  
Max Temperature 73 °F 75 °F 90 °F (2009)
Min Temperature 45 °F 58 °F 45 °F (2013)
Degree Days  
Heating Degree Days 8    
Growing Degree Days 8 (Base 50)    
Moisture  
Dew Point 27 °F    
Average Humidity 34    
Maximum Humidity 52    
Minimum Humidity 16    
Precipitation  
Precipitation 0.00 in - - ()
Sea Level Pressure  
Sea Level Pressure 30.37 in    
Wind  
Wind Speed 9 mph (ENE)    
Max Wind Speed 16 mph    
Max Gust Speed 23 mph    
Visibility 10 miles    
Events      
Averages and records for this station are not official NWS values.
T = Trace of Precipitation, MM = Missing Value Source: NWS Daily Summary

Daily Weather History Graph

Daily Weather History Graph

Search for Another Location

Airport or City:

Trip Planner

Search our weather history database for the weather conditions in past years. The results will help you decide how hot, cold, wet, or windy it might be!

Date:

Astronomy

Mar. 26, 2013 Rise Set
Actual Time 7:28 AM CDT 7:45 PM CDT
Civil Twilight 7:04 AM CDT 8:09 PM CDT
Nautical Twilight 6:37 AM CDT 8:36 PM CDT
Astronomical Twilight 6:09 AM CDT 9:04 PM CDT
Moon 7:22 PM CDT (3/26) 6:44 AM CDT (3/26)
Length of Visible Light 13h 04m
Length of Day
12h 17m
Waxing Gibbous, 99% of the Moon is Illuminated
Mar 26
Waxing Gibbous
Mar 27
Full
Apr 2
Last Quarter
Apr 10
New
Apr 18
First Quarter

Hourly Weather History & Observations

Time (CDT) Temp. Windchill Dew Point Humidity Pressure Visibility Wind Dir Wind Speed Gust Speed Precip Events Conditions
12:56 AM 46.0 °F 43.9 °F 26.1 °F 46% 30.35 in 10.0 mi North 4.6 mph - N/A   Clear
1:56 AM 48.0 °F - 26.1 °F 42% 30.35 in 10.0 mi NNE 8.1 mph - N/A   Clear
2:56 AM 48.0 °F - 26.1 °F 42% 30.35 in 10.0 mi NNE 8.1 mph - N/A   Clear
3:56 AM 48.0 °F - 25.0 °F 41% 30.35 in 10.0 mi NNE 8.1 mph - N/A   Clear
4:56 AM 48.0 °F - 27.0 °F 44% 30.36 in 10.0 mi NNE 9.2 mph - N/A   Clear
5:56 AM 48.0 °F - 27.0 °F 44% 30.37 in 10.0 mi NNE 8.1 mph - N/A   Clear
6:56 AM 46.9 °F - 28.0 °F 48% 30.40 in 10.0 mi NNE 9.2 mph - N/A   Scattered Clouds
7:56 AM 45.0 °F 40.6 °F 28.0 °F 52% 30.42 in 10.0 mi North 8.1 mph - N/A   Partly Cloudy
8:56 AM 53.1 °F - 30.9 °F 43% 30.43 in 10.0 mi NNE 12.7 mph - N/A   Partly Cloudy
9:56 AM 57.7 °F - 32.2 °F 38% 30.44 in 10.0 mi ENE 13.8 mph - N/A   Partly Cloudy
10:56 AM 62.4 °F - 33.8 °F 34% 30.45 in 10.0 mi ENE 16.1 mph - N/A   Partly Cloudy
11:56 AM 63.7 °F - 33.8 °F 33% 30.43 in 10.0 mi East 13.8 mph - N/A   Scattered Clouds
12:56 PM 64.9 °F - 25.7 °F 23% 30.41 in 10.0 mi ESE 13.8 mph - N/A   Partly Cloudy
1:56 PM 66.4 °F - 22.5 °F 19% 30.39 in 10.0 mi East 15.0 mph - N/A   Scattered Clouds
2:56 PM 68.7 °F - 20.7 °F 16% 30.37 in 10.0 mi SE 10.4 mph 17.3 mph N/A   Scattered Clouds
3:56 PM 70.5 °F - 24.1 °F 17% 30.34 in 10.0 mi East 12.7 mph 18.4 mph N/A   Scattered Clouds
4:56 PM 65.7 °F - 19.0 °F 17% 30.33 in 10.0 mi ESE 12.7 mph 19.6 mph N/A   Scattered Clouds
5:56 PM 64.2 °F - 23.0 °F 21% 30.32 in 10.0 mi SE 13.8 mph 23.0 mph N/A   Scattered Clouds
6:56 PM 63.5 °F - 24.1 °F 22% 30.32 in 10.0 mi ESE 13.8 mph 18.4 mph N/A   Scattered Clouds
7:56 PM 61.5 °F - 26.6 °F 27% 30.33 in 10.0 mi SE 10.4 mph - N/A   Scattered Clouds
8:56 PM 57.4 °F - 28.8 °F 34% 30.34 in 10.0 mi SE 8.1 mph - N/A   Scattered Clouds
9:56 PM 56.1 °F - 29.5 °F 36% 30.35 in 10.0 mi SSE 5.8 mph - N/A   Partly Cloudy
10:56 PM 56.7 °F - 31.8 °F 39% 30.35 in 10.0 mi SSE 5.8 mph - N/A   Partly Cloudy
11:56 PM 54.3 °F - 32.4 °F 43% 30.34 in 10.0 mi SE 5.8 mph - N/A   Clear